Location: Unspecified
(0.0000°N, 0.0000°E)
Time: 07:51:11
(UTC+00:00)

deb Delta 104 - Pass Details

Date: 08 March 2026
Orbit: 1402 x 1485 km, 102.0° (Epoch: 18 April)

Event Time Altitude Azimuth Distance (km) Brightness Sun altitude
Rises 18:14:50 0° 161° (SSE) 4,486 ? -1.0°
Reaches altitude 10° 18:17:34 10° 160° (SSE) 3,515 ? -1.7°
Maximum altitude 18:25:45 80° 74° (ENE) 1,456 ? -3.7°
Drops below altitude 10° 18:34:04 10° 348° (NNW) 3,564 ? -5.8°
Sets 18:36:51 0° 347° (NNW) 4,551 ? -6.5°
